User: anonymous   Login
Location: Tierra Monte Subdivision
(35.2092°N, 106.4864°W)
Time: 12:47:24
(UTC+00:00)
Language:

Cosmos 1939 Rocket - Orbit

View from above orbital plane
View from above orbital plane
View from above satellite
View from above satellite

Ground track
Ground track

The orbit data is extracted from the following two-line orbital elements,

1 19046U 88032B   20191.83455375 -.00000654 +00000-0 -43849-4 0  9993
2 19046 097.4012 211.9149 0038794 127.2689 233.2085 15.02723158740321
Epoch (UTC): 09 July 2020 20:01:45
Eccentricity: 0.0038794
inclination: 97.4012°
perigee height: 531 km
apogee height: 585 km
right ascension of ascending node: 211.9149°
argument of perigee: 127.2689°
revolutions per day: 15.02723158
mean anomaly at epoch: 233.2085°
orbit number at epoch: 74032

The dashed part of the orbit path shows where the satellite is in the earth's shadow,  

DLR